User: anonymous   Login
Location: Dover
(39.1580°N, 75.5250°W)
Time: 08:54:55
(UTC-04:00)
Language:

SeaSat 1 - Orbit

View from above orbital plane
View from above orbital plane
View from above satellite
View from above satellite

Ground track
Ground track

The orbit data is extracted from the following two-line orbital elements,

1 10967U 78064A   16206.22288777 -.00000009  00000-0  37765-4 0  9998
2 10967 108.0034 334.2161 0000848 267.5907  92.5141 14.43564404999270
Epoch (UTC): 24 July 2016 05:20:57
Eccentricity: 0.0000848
inclination: 108.0034°
perigee height: 746 km
apogee height: 747 km
right ascension of ascending node: 334.2161°
argument of perigee: 267.5907°
revolutions per day: 14.43564404
mean anomaly at epoch: 92.5141°
orbit number at epoch: 99927

The dashed part of the orbit path shows where the satellite is in the earth's shadow,  

DLR